Weather History for KADF - April, 2014

Change the Weather History Date:

Sunday, April 20, 2014

  Actual Average Record
Temperature  
Mean Temperature 68 °F -  
Max Temperature 81 °F - - ()
Min Temperature 54 °F - - ()
Cooling Degree Days 2    
Growing Degree Days 18 (Base 50)    
Moisture  
Dew Point 57 °F    
Average Humidity 75    
Maximum Humidity 100    
Minimum Humidity 39    
Precipitation  
Precipitation 0.00 in - - ()
Sea Level Pressure  
Sea Level Pressure 30.18 in    
Wind  
Wind Speed 1 mph (SSW)    
Max Wind Speed 6 mph    
Max Gust Speed -    
Visibility 9 miles    
Events      
Averages and records for this station are not official NWS values.
T = Trace of Precipitation, MM = Missing Value Source: NWS Daily Summary

Daily Weather History Graph

Daily Weather History Graph

Search for Another Location

Airport or City:

Trip Planner

Search our weather history database for the weather conditions in past years. The results will help you decide how hot, cold, wet, or windy it might be!

Date:

Astronomy

Apr. 20, 2014 Rise Set
Actual Time 6:35 AM CDT 7:47 PM CDT
Civil Twilight 6:09 AM CDT 8:13 PM CDT
Nautical Twilight 5:38 AM CDT 8:44 PM CDT
Astronomical Twilight 5:06 AM CDT 9:17 PM CDT
Moon 12:22 AM CDT (4/20) 11:01 AM CDT (4/20)
Length of Visible Light 14h 04m
Length of Day
13h 12m
Waning Gibbous, 68% of the Moon is Illuminated
Apr 20
Waning Gibbous
Apr 22
Last Quarter
Apr 29
New
May 6
First Quarter
May 14
Full

Hourly Weather History & Observations

Time (CDT) Temp. Heat Index Dew Point Humidity Pressure Visibility Wind Dir Wind Speed Gust Speed Precip Events Conditions
12:56 AM 55.9 °F - 55.9 °F 100% 30.21 in 7.0 mi Calm Calm - N/A   Clear
1:56 AM 54.0 °F - 54.0 °F 100% 30.20 in 8.0 mi Calm Calm - N/A   Clear
2:56 AM 54.9 °F - 54.0 °F 97% 30.20 in 9.0 mi Calm Calm - N/A   Clear
3:56 AM 54.9 °F - 54.9 °F 100% 30.20 in 6.0 mi Calm Calm - N/A   Clear
4:56 AM 54.0 °F - 54.0 °F 100% 30.21 in 6.0 mi Calm Calm - N/A   Clear
5:56 AM 54.0 °F - 52.9 °F 96% 30.21 in 9.0 mi Calm Calm - N/A   Clear
6:56 AM 54.9 °F - 54.0 °F 97% 30.24 in 9.0 mi Calm Calm - N/A   Mostly Cloudy
7:56 AM 56.8 °F - 54.0 °F 90% 30.25 in 8.0 mi Calm Calm - N/A   Mostly Cloudy
8:56 AM 59.9 °F - 55.9 °F 87% 30.25 in 10.0 mi Calm Calm - N/A   Scattered Clouds
9:56 AM 66.9 °F - 55.9 °F 68% 30.26 in 10.0 mi Calm Calm - N/A   Clear
10:56 AM 72.0 °F - 55.9 °F 57% 30.25 in 10.0 mi Calm Calm - N/A   Partly Cloudy
11:56 AM 77.0 °F - 56.8 °F 50% 30.23 in 10.0 mi Variable 5.8 mph - N/A   Clear
12:56 PM 77.9 °F - 54.9 °F 45% 30.20 in 10.0 mi SSE 5.8 mph - N/A   Partly Cloudy
1:56 PM 79.9 °F - 54.0 °F 41% 30.18 in 10.0 mi Calm Calm - N/A   Partly Cloudy
2:56 PM 79.9 °F - 54.0 °F 41% 30.17 in 10.0 mi West 4.6 mph - N/A   Scattered Clouds
3:56 PM 81.0 °F 80.5 °F 54.0 °F 39% 30.14 in 10.0 mi Variable 4.6 mph - N/A   Scattered Clouds
4:56 PM 79.9 °F - 54.0 °F 41% 30.12 in 10.0 mi South 5.8 mph - N/A   Scattered Clouds
5:56 PM 79.0 °F - 55.9 °F 45% 30.10 in 10.0 mi Calm Calm - N/A   Clear
6:56 PM 77.0 °F - 59.0 °F 54% 30.12 in 10.0 mi Calm Calm - N/A   Partly Cloudy
7:56 PM 70.9 °F - 63.0 °F 76% 30.12 in 10.0 mi Calm Calm - N/A   Clear
8:56 PM 68.9 °F - 63.9 °F 84% 30.13 in 10.0 mi Calm Calm - N/A   Partly Cloudy
9:56 PM 66.9 °F - 63.9 °F 90% 30.14 in 10.0 mi Calm Calm - N/A   Partly Cloudy
10:56 PM 64.9 °F - 63.9 °F 96% 30.12 in 10.0 mi Calm Calm - N/A   Clear
11:56 PM 63.0 °F - 63.0 °F 100% 30.12 in 6.0 mi Calm Calm - N/A   Clear